Temp
35 35 35 37 33 33 36 35 33 34 33 32 31 31 31 29 28 30 30 30 31 31 31 30 31 30 29 28 27 27 26 25 25 25 26 27 27 27 26 26 24 24 25 25
35 34 37 37 36 35 36 35 33 33 33 32 33 33 32 31 28 29 30 30 30 32 26 29 31 31 30 28 27 26 26 25 24 25 25 27 27 27 27 27 25 25 25 25
35 36 37 36 35 35 36 36 35 28 34 34 34 27 32 32 31 30 28 31 31 28 32 32 32 30 30 29 27 26 25 24 24 26 26 25 26 26 26 26 25 25 25 25
35 36 35 35 35 36 35 36 35 35 29 22 31 28 24 32 31 31 31 28 29 33 27 28 32 31 30 29 28 26 25 25 24 24 26 26 26 27 27 27 27 26 25 25
35 35 35 35 35 36 36 35 35 34 35 31 32 35 29 34 32 32 32 31 31 30 33 33 28 31 31 30 29 27 25 25 25 25 25 25 26 25 27 28 26 26 25 25
36 37 36 36 37 36 36 35 35 35 35 34 34 35 33 28 34 34 33 33 31 31 33 33 33 30 31 30 30 28 26 25 25 25 24 24 26 25 26 27 26 27 26 26
35 35 36 37 36 36 36 36 31 30 29 32 35 35 33 34 35 35 34 34 32 31 30 33 33 32 32 31 30 29 26 25 25 25 25 24 25 25 25 26 27 28 27 28
34 33 36 36 36 36 35 36 34 30 31 35 36 35 34 36 36 35 32 34 35 34 32 34 34 33 32 32 31 30 27 25 25 25 25 25 25 25 26 25 28 28 27 27
36 36 37 37 37 37 36 35 38 36 37 35 36 35 36 36 36 35 34 33 34 33 33 33 33 33 32 32 31 30 28 26 26 26 25 25 24 25 26 27 26 27 28 28
37 35 36 37 37 37 36 37 35 36 33 33 33 34 33 34 34 35 35 35 33 34 33 34 33 33 32 31 31 30 29 27 27 27 26 26 25 25 25 26 26 27 26 27
37 36 35 36 35 35 35 35 36 37 36 34 33 32 36 34 34 35 35 34 34 34 33 33 33 31 32 32 31 30 29 28 27 27 27 27 26 26 25 26 26 25 26 26
37 37 35 35 37 38 37 36 36 35 33 35 35 33 36 35 35 34 34 34 33 32 33 33 31 31 32 30 30 30 30 29 28 28 27 27 26 26 26 26 26 26 26 25
36 35 33 34 36 36 35 36 36 37 37 34 34 32 35 35 35 34 34 33 32 32 31 32 32 31 31 30 29 30 30 29 29 28 28 27 27 26 27 27 26 26 26 26
35 36 35 33 33 36 34 35 36 36 35 35 36 34 35 35 34 34 34 33 32 32 31 31 31 30 30 30 29 28 29 29 29 28 28 28 27 27 27 27 26 26 26 25
36 34 34 35 35 35 35 35 35 34 35 35 35 34 36 35 35 34 34 33 32 32 32 31 31 30 28 28 27 27 27 28 28 28 28 27 27 27 26 26 26 26 25 25
36 34 34 34 36 35 34 35 35 35 35 35 35 35 36 33 33 33 33 32 32 32 31 31 30 29 27 26 24 25 25 25 26 27 27 27 26 25 26 25 25 25 24 24
35 34 33 33 35 34 32 34 34 35 35 35 34 35 33 32 32 32 31 31 31 31 31 31 30 29 28 26 24 23 23 24 24 25 26 26 26 26 25 25 25 25 24 24
34 33 34 33 33 31 34 35 35 34 34 35 35 35 34 33 32 32 32 31 31 31 30 30 30 29 28 28 27 25 24 24 24 24 24 25 26 25 25 25 25 25 25 24
36 34 33 32 32 33 34 34 33 33 32 34 34 34 33 32 32 31 32 32 31 31 30 30 29 28 27 27 26 25 25 25 25 25 25 25 25 25 25 24 24 24 24 25
35 35 33 32 31 30 34 35 35 34 31 34 34 33 32 32 31 31 31 31 31 30 30 29 29 27 27 26 25 25 24 24 23 23 24 25 24 24 24 24 24 23 23 24
31 32 32 32 31 33 35 35 34 30 31 34 34 33 32 31 31 30 31 30 30 30 29 28 28 28 27 26 25 23 22 22 23 24 23 23 22 22 23 23 22 22 22 22
31 31 32 32 31 30 35 34 31 33 33 33 33 33 32 31 31 31 31 30 30 29 29 28 27 27 27 26 25 24 22 21 22 23 22 22 22 20 21 21 22 21 21 21
32 33 32 33 33 34 34 34 34 34 33 33 33 33 32 31 31 31 31 30 30 29 28 27 27 27 26 25 24 23 21 20 21 21 21 21 19 18 19 19 19 19 19 19
33 34 33 32 33 33 34 34 34 34 33 33 33 33 32 31 31 31 30 30 29 28 27 27 27 26 26 25 24 21 20 21 20 20 20 19 18 18 18 17 18 18 18 18
30 32 32 32 33 33 33 34 34 34 33 33 33 33 32 31 31 30 30 29 28 27 26 26 25 25 25 24 22 20 20 20 21 20 19 17 17 16 15 16 16 16 17 17
31 31 32 32 33 32 32 33 34 33 32 32 32 31 31 31 30 29 29 28 27 26 25 25 24 24 24 22 20 20 19 18 20 18 17 17 17 16 14 12 12 14 15 15
Height
751 760 757 738 752 758 746 749 763 758 757 762 771 772 773 779 784 780 779 778 780 782 784 790 794 798 804 810 817 820 823 826 830 831 830 832 833 835 837 838 841 842 843 844
756 765 736 733 739 747 745 751 765 758 755 760 760 762 762 767 780 778 777 776 779 777 792 791 789 795 800 809 815 819 822 826 829 830 829 829 831 833 835 837 840 842 843 844
757 743 734 742 748 755 746 747 754 788 756 752 756 790 766 765 765 775 781 773 772 779 777 781 785 793 798 804 813 817 821 824 827 828 829 832 833 833 835 836 839 841 842 844
752 734 747 750 752 743 752 740 748 753 783 840 766 809 803 762 769 769 768 780 777 768 784 780 781 788 794 799 808 814 818 822 826 828 828 830 831 831 832 834 835 839 842 843
751 747 749 755 747 738 747 742 747 753 752 774 772 756 778 748 764 763 764 762 770 775 767 771 782 781 787 795 803 811 817 820 823 827 829 831 830 830 831 832 835 837 841 843
738 727 734 736 731 737 734 746 747 746 748 769 761 756 765 785 743 747 749 753 764 768 765 766 772 782 783 792 797 805 814 817 821 825 828 829 829 831 830 831 835 836 839 842
744 741 731 728 742 736 743 745 788 801 805 781 751 754 760 744 737 738 746 747 759 764 770 764 768 774 779 787 793 800 809 815 818 821 825 828 830 832 833 833 833 833 835 836
754 769 739 731 733 741 745 739 765 805 797 755 738 760 754 733 730 737 747 740 742 751 761 758 762 769 776 782 789 795 803 811 815 818 822 825 828 831 832 833 831 830 831 833
740 741 723 724 723 729 737 754 722 743 730 758 746 744 732 733 735 738 741 747 747 749 755 758 763 765 773 779 786 792 799 808 812 815 818 821 825 829 829 829 832 831 831 830
721 748 726 726 725 727 734 725 750 744 778 778 770 755 764 750 746 740 739 739 748 747 751 753 761 764 770 776 782 789 795 803 808 811 814 818 821 824 827 828 830 830 828 830
718 729 739 729 742 739 741 746 738 729 739 762 769 778 730 742 742 742 742 741 744 748 752 755 759 765 768 772 776 783 790 797 804 807 809 813 817 820 823 825 827 829 828 831
718 721 744 737 715 711 718 727 731 748 763 742 747 769 728 734 736 740 744 744 749 752 751 754 761 765 765 772 775 779 784 790 796 801 805 809 813 816 818 821 822 824 827 830
718 731 755 746 728 723 737 729 725 721 720 748 763 766 730 732 735 738 741 747 753 754 756 757 757 762 764 770 777 777 782 786 791 796 800 804 808 810 812 815 818 819 821 824
712 722 729 749 750 720 740 733 729 731 743 738 737 744 735 735 739 741 743 745 750 753 757 758 759 763 766 769 774 779 780 784 787 791 795 798 802 805 807 810 812 815 817 819
716 736 729 722 729 727 731 734 732 741 736 743 736 742 725 726 730 736 740 745 751 754 754 758 759 765 770 771 774 776 780 781 784 788 791 794 797 800 802 804 807 809 811 814
712 734 724 730 717 727 739 732 731 731 733 732 731 737 720 731 733 737 743 746 751 752 754 757 762 765 770 774 778 780 784 784 785 786 787 789 793 795 797 799 802 805 807 810
718 724 734 745 722 729 752 735 730 729 725 730 746 732 728 740 740 742 747 748 750 751 754 756 760 764 767 773 777 779 780 782 784 785 786 786 788 790 790 792 795 797 801 803
716 723 725 739 732 766 729 712 718 728 725 721 723 722 724 731 738 738 741 747 750 753 755 758 759 763 766 769 772 776 776 777 779 782 784 783 783 783 784 786 788 790 792 794
693 714 731 745 744 730 722 723 730 735 738 720 725 725 727 733 738 745 740 744 749 753 757 759 762 765 768 770 771 773 775 775 775 776 779 779 778 778 779 780 782 785 787 787
698 701 722 731 750 758 718 704 703 717 748 716 719 726 731 737 752 743 744 747 750 753 757 759 762 765 767 769 770 771 773 774 775 775 774 773 774 773 773 774 777 779 781 782
722 717 728 729 742 727 704 705 708 758 744 709 714 721 728 740 741 742 746 749 751 754 756 759 762 763 764 767 768 769 771 771 769 769 769 769 769 770 769 770 771 772 774 775
723 728 725 724 734 749 695 709 736 720 714 715 716 719 726 734 738 740 743 747 750 753 755 755 760 761 762 764 765 765 767 768 766 765 765 765 766 767 766 766 766 767 768 769
711 702 711 709 710 693 694 705 703 707 714 716 717 719 724 732 738 739 743 747 750 753 755 755 755 758 760 763 764 763 765 765 762 761 761 762 764 765 765 765 765 765 765 766
687 680 694 702 699 694 695 697 700 704 710 712 715 719 725 730 734 738 742 746 750 753 755 755 755 755 757 758 760 763 762 760 759 759 759 760 762 763 763 763 764 764 766 766
695 685 692 695 692 692 695 697 700 703 708 710 713 718 726 730 734 739 743 747 750 753 754 755 754 755 755 757 760 762 760 758 757 757 758 760 761 763 764 764 764 763 764 764
685 691 696 698 686 698 698 697 698 705 710 713 716 722 727 730 735 740 745 748 751 752 752 753 753 754 755 757 759 758 757 756 755 756 757 758 761 763 765 766 766 764 763 763
Wind_Speed
14 12 15 15 17 22 9 5 8 8 8 8 14 14 12 17 12 12 12 13 11 16 13 18 13 14 15 15 14 14 13 12 10 8 9 9 10 8 8 7 5 7 6 5
11 13 17 2 6 6 8 1 4 6 7 9 8 8 14 16 16 11 12 9 10 13 12 22 17 16 16 14 14 15 14 13 11 9 10 6 8 9 8 8 5 6 6 5
14 14 9 4 9 10 12 3 5 13 9 8 5 9 12 13 17 17 14 14 8 9 13 13 15 17 17 18 14 16 16 14 12 9 7 5 5 4 7 9 7 8 6 5
12 15 6 11 12 13 1 7 4 7 8 2 24 3 19 16 13 15 18 14 13 12 10 9 19 19 19 19 17 15 16 16 14 12 12 10 10 10 12 10 11 8 7 6
15 12 11 12 14 15 4 4 6 6 12 13 16 8 7 15 17 17 14 18 19 17 16 19 15 22 22 21 20 17 16 18 15 14 9 10 12 7 10 10 12 7 8 6
10 1 9 14 3 3 4 6 7 10 11 9 0 8 9 3 8 11 18 17 15 20 12 13 17 23 20 21 21 21 18 19 17 16 14 12 9 6 6 12 11 11 10 10
13 12 11 5 12 8 11 16 5 6 5 8 12 7 9 3 9 6 3 15 19 19 16 18 14 17 21 25 22 24 21 19 20 17 15 15 11 8 5 7 12 13 16 15
12 13 14 12 15 7 14 17 10 7 8 6 6 0 6 6 8 9 3 2 16 17 17 17 15 16 16 18 21 21 24 20 20 19 17 15 14 12 11 12 9 11 17 16
8 8 17 15 10 10 6 8 14 9 7 5 5 5 10 5 7 7 8 9 7 10 16 11 16 18 18 19 19 20 22 20 20 20 19 18 16 16 15 11 12 13 8 6
3 9 14 12 8 10 14 13 6 6 2 10 2 4 10 9 6 5 5 11 7 6 8 16 14 18 18 21 20 21 20 21 21 20 20 19 18 17 15 11 10 10 13 13
16 10 9 9 12 15 8 10 8 12 7 3 3 7 10 12 6 4 8 5 8 8 6 5 10 12 17 17 21 24 23 22 21 22 20 19 19 19 17 18 16 14 9 6
18 8 12 16 14 7 11 9 8 6 8 6 8 7 11 12 11 5 8 9 8 5 4 5 13 16 18 14 11 15 23 21 22 22 20 19 19 19 20 19 20 18 16 14
15 11 10 13 14 12 10 14 13 14 13 9 10 8 7 9 12 7 9 9 6 5 4 3 3 7 12 19 19 19 18 19 21 21 22 21 20 21 21 20 20 20 20 20
10 15 14 2 13 3 13 9 5 13 10 8 9 16 14 12 9 8 5 7 7 5 5 5 5 4 7 11 18 19 20 20 19 19 21 20 21 21 22 21 21 21 21 21
13 17 10 11 15 4 8 8 8 11 15 16 6 7 6 10 7 11 7 7 7 6 7 6 5 6 4 7 5 13 14 14 19 20 18 20 20 21 21 21 21 23 23 23
17 17 13 13 6 6 10 10 12 11 12 13 9 10 8 9 4 6 7 7 7 7 6 6 6 6 6 8 8 9 11 10 9 15 18 20 21 21 21 22 22 22 23 24
18 15 13 14 13 9 10 14 13 10 10 10 11 4 9 2 4 7 8 7 7 6 5 6 6 7 7 10 10 12 11 9 8 14 18 21 22 23 24 23 24 23 24 25
18 16 12 11 11 13 12 4 6 8 9 9 10 10 5 4 5 7 8 8 7 7 4 3 3 4 7 7 7 7 9 10 12 14 17 19 20 22 23 23 24 24 24 25
16 15 13 11 13 11 10 7 9 9 10 9 9 7 7 5 7 7 7 7 7 7 5 3 1 1 3 4 5 7 9 9 12 19 19 17 17 19 21 25 26 26 25 25
17 14 12 10 13 16 13 3 9 3 10 10 7 5 8 9 10 9 8 5 5 4 3 3 2 4 6 6 6 7 8 10 13 15 18 16 15 14 17 21 25 28 27 26
16 13 15 14 10 11 4 7 8 7 3 4 8 8 11 8 8 12 9 6 3 2 4 4 6 7 7 7 7 7 9 12 14 13 14 13 10 13 17 19 20 21 23 24
19 16 15 14 14 14 9 10 10 2 3 2 5 7 8 9 5 7 4 0 3 6 9 9 10 10 9 7 8 10 9 13 14 13 12 14 7 5 5 8 13 15 19 22
18 17 15 14 13 11 9 10 9 10 3 4 5 6 5 10 5 2 0 3 4 6 7 9 9 8 9 8 10 10 11 13 15 12 12 9 4 2 3 4 4 4 8 7
22 19 16 13 12 4 12 9 7 10 5 8 7 5 8 6 5 3 0 3 5 6 8 10 11 9 11 8 7 8 13 12 13 12 10 6 5 5 4 4 5 5 6 5
9 11 13 13 4 9 9 9 10 8 7 5 6 7 7 8 5 1 2 3 5 8 10 10 10 11 11 9 9 12 12 12 12 7 7 9 7 4 2 1 3 4 6 7
9 11 12 9 12 11 10 11 11 11 10 8 8 8 7 5 4 4 2 4 7 10 11 10 10 10 11 8 11 13 9 9 6 7 12 10 8 6 5 5 6 3 2 5
Wind_Direction
206 226 232 233 130 204 297 49 99 94 129 211 186 156 162 173 191 206 228 161 214 185 169 169 179 161 160 162 170 180 185 156 180 185 196 161 170 167 181 181 170 184 174 163
186 236 252 98 331 314 292 48 85 128 161 233 146 176 160 173 193 202 222 228 193 186 187 156 172 172 171 167 180 179 188 183 196 197 222 188 181 169 184 184 183 186 178 170
243 218 246 254 223 229 237 241 142 157 189 250 227 4 161 179 178 195 206 250 241 157 192 180 185 180 181 166 182 185 187 188 189 188 179 175 205 98 190 162 193 193 184 177
236 264 210 237 236 248 150 353 206 235 115 76 282 199 315 162 190 193 195 205 239 222 157 225 183 188 182 169 176 183 184 186 188 193 186 191 203 175 199 177 181 181 189 185
214 220 222 233 223 222 66 147 264 259 268 170 241 258 185 165 180 191 214 196 195 235 227 184 227 185 177 174 173 182 185 186 190 195 189 194 219 146 194 169 142 204 187 192
288 229 213 213 198 225 345 210 226 243 250 261 32 285 107 259 107 176 179 203 190 214 217 229 203 167 166 187 174 174 184 186 188 189 195 210 230 253 335 171 168 187 190 199
210 184 196 242 199 188 226 222 130 300 357 320 213 282 70 182 107 71 132 174 181 197 209 233 190 181 178 172 186 173 180 191 190 191 197 203 210 208 188 200 206 203 194 191
199 172 186 204 228 196 209 263 277 285 182 186 113 327 88 59 97 110 162 316 177 179 203 220 200 194 174 188 185 184 173 193 195 194 199 197 200 206 211 205 231 225 176 215
196 198 167 185 230 262 150 255 277 298 198 266 140 169 136 108 128 130 125 158 182 204 190 210 213 210 191 192 193 194 177 193 199 201 198 192 193 210 213 220 208 228 242 151
305 152 175 178 241 244 282 331 213 216 185 261 138 221 128 187 95 133 190 124 123 156 208 185 209 206 203 190 196 195 194 192 204 205 201 198 193 201 216 221 227 235 236 237
256 252 160 157 208 219 189 238 237 286 336 298 103 10 93 120 110 86 104 108 112 126 144 172 190 214 213 205 191 195 197 198 203 208 202 201 199 204 206 207 211 234 244 237
229 234 178 203 210 266 303 282 242 224 191 291 326 129 101 120 128 116 105 98 92 74 102 168 176 210 208 216 228 211 192 204 204 210 206 206 202 204 208 214 211 210 221 219
215 242 189 200 184 206 241 248 267 276 282 173 269 120 134 140 137 151 130 128 127 120 103 118 183 189 213 190 217 212 210 206 203 204 207 211 209 211 215 214 218 220 214 218
267 235 251 150 319 169 199 222 254 277 276 258 243 140 162 161 154 149 152 141 138 131 127 105 153 151 215 214 195 217 212 210 206 208 211 211 215 218 221 221 220 219 223 219
232 242 234 182 236 275 301 290 276 257 270 283 74 258 59 104 139 156 172 160 153 152 138 147 143 143 184 210 218 194 221 216 208 211 224 217 222 221 225 232 229 224 221 223
219 246 269 294 228 260 271 265 264 253 255 256 287 285 80 106 100 142 167 176 180 161 146 134 127 137 164 171 193 199 222 246 239 240 236 230 223 227 229 228 228 230 230 230
225 237 237 241 254 205 253 251 252 246 253 253 250 269 94 132 154 160 173 191 182 161 157 147 148 149 142 167 178 195 199 196 237 246 240 235 237 233 226 226 224 227 225 229
220 233 236 244 256 226 252 36 334 314 297 279 271 277 160 140 153 160 171 181 174 163 146 153 152 144 177 184 175 199 214 211 212 251 250 247 241 236 235 228 226 227 225 222
215 215 228 245 241 234 209 198 230 240 257 255 257 255 123 146 167 158 157 154 157 158 163 164 182 267 287 280 255 235 240 242 233 236 238 240 242 242 239 230 231 232 228 224
248 204 233 218 255 256 241 211 151 288 265 230 189 219 159 186 214 145 141 143 143 141 168 236 227 249 250 260 270 263 261 257 257 256 254 245 250 264 257 249 240 235 233 235
230 224 217 226 227 242 235 120 110 227 59 108 174 190 162 193 67 121 144 161 162 216 245 248 260 265 274 278 272 277 291 275 269 267 259 256 259 258 260 259 255 247 239 236
208 205 225 233 233 234 143 156 193 4 125 261 183 193 150 110 157 149 144 92 314 308 296 253 231 269 291 285 277 273 273 282 280 268 255 246 244 263 282 285 264 259 247 242
214 218 216 228 224 196 150 215 188 251 173 194 191 196 156 165 192 208 132 358 340 326 320 305 289 281 275 281 283 291 288 280 277 269 243 225 197 226 267 296 330 321 274 255
211 211 225 237 256 128 183 187 207 204 194 170 198 198 169 197 200 176 237 344 348 336 323 305 289 279 279 276 291 300 291 283 274 276 231 183 170 211 228 241 235 250 270 259
246 182 212 219 243 193 188 203 196 210 179 213 176 169 182 195 182 173 336 335 325 326 313 301 291 285 288 290 291 287 288 276 272 251 188 165 162 148 110 325 295 250 244 243
160 205 207 227 196 194 189 206 227 188 197 203 186 177 190 185 185 142 285 347 325 320 311 297 286 284 286 307 289 276 286 284 269 185 169 160 152 136 125 121 74 58 327 270